TimeEDT,TemperatureF,Dew PointF,Humidity,Sea Level PressureIn,VisibilityMPH,Wind Direction,Wind SpeedMPH,Gust SpeedMPH,PrecipitationIn,Events,Conditions,WindDirDegrees,DateUTC
12:07 AM,51.8,48.2,88,30.13,10.0,East,3.5,-,N/A,,Overcast,100,2013-10-11 04:07:00
12:21 AM,53.6,48.2,82,30.12,10.0,Calm,Calm,-,N/A,,Overcast,0,2013-10-11 04:21:00
12:54 AM,53.1,50.0,89,30.11,10.0,Calm,Calm,-,N/A,,Overcast,0,2013-10-11 04:54:00
1:54 AM,52.0,44.1,74,30.11,10.0,ESE,3.5,-,N/A,,Overcast,110,2013-10-11 05:54:00
2:54 AM,53.1,44.1,71,30.09,10.0,Calm,Calm,-,N/A,,Overcast,0,2013-10-11 06:54:00
3:36 AM,51.8,42.8,71,30.08,10.0,ESE,3.5,-,N/A,,Overcast,110,2013-10-11 07:36:00
3:54 AM,53.1,42.1,66,30.07,10.0,East,4.6,-,N/A,,Overcast,80,2013-10-11 07:54:00
4:54 AM,54.0,41.0,62,30.07,10.0,East,3.5,-,N/A,,Overcast,100,2013-10-11 08:54:00
5:54 AM,55.0,42.1,62,30.08,10.0,East,3.5,-,N/A,,Overcast,80,2013-10-11 09:54:00
6:54 AM,55.0,44.1,67,30.09,10.0,ESE,3.5,-,N/A,,Overcast,110,2013-10-11 10:54:00
7:54 AM,57.0,48.0,72,30.09,10.0,East,4.6,-,N/A,,Overcast,90,2013-10-11 11:54:00
8:54 AM,59.0,48.9,69,30.10,10.0,Calm,Calm,-,N/A,,Overcast,0,2013-10-11 12:54:00
9:54 AM,60.1,51.1,72,30.12,10.0,NE,10.4,-,N/A,,Overcast,40,2013-10-11 13:54:00
10:54 AM,61.0,51.1,70,30.09,10.0,NE,6.9,-,N/A,,Mostly Cloudy,40,2013-10-11 14:54:00
11:54 AM,64.0,53.1,67,30.09,10.0,NE,9.2,-,N/A,,Mostly Cloudy,40,2013-10-11 15:54:00
12:11 PM,62.6,51.8,68,30.10,10.0,NE,6.9,-,N/A,,Mostly Cloudy,40,2013-10-11 16:11:00
12:54 PM,64.9,52.0,63,30.08,10.0,ENE,5.8,-,N/A,,Scattered Clouds,60,2013-10-11 16:54:00
1:54 PM,69.1,54.0,58,30.05,10.0,NE,8.1,-,N/A,,Partly Cloudy,40,2013-10-11 17:54:00
2:54 PM,70.0,54.0,57,30.04,10.0,ENE,8.1,-,N/A,,Clear,70,2013-10-11 18:54:00
3:54 PM,71.1,55.0,57,30.03,10.0,Variable,4.6,-,N/A,,Mostly Cloudy,0,2013-10-11 19:54:00
4:54 PM,70.0,55.9,61,30.04,10.0,Variable,5.8,-,N/A,,Overcast,0,2013-10-11 20:54:00
5:54 PM,68.0,55.9,65,30.05,10.0,East,5.8,-,N/A,,Overcast,90,2013-10-11 21:54:00
6:54 PM,66.9,57.0,70,30.08,10.0,Variable,5.8,-,N/A,,Overcast,0,2013-10-11 22:54:00
7:30 PM,64.4,57.2,77,30.10,10.0,Variable,3.5,-,N/A,,Overcast,0,2013-10-11 23:30:00
7:54 PM,63.0,57.9,84,30.09,10.0,Variable,5.8,-,N/A,,Overcast,0,2013-10-11 23:54:00
8:25 PM,62.6,57.2,82,30.10,10.0,Calm,Calm,-,N/A,,Overcast,0,2013-10-12 00:25:00
8:51 PM,62.6,57.2,82,30.10,10.0,ENE,3.5,-,N/A,,Overcast,60,2013-10-12 00:51:00
8:54 PM,64.0,57.0,78,30.10,10.0,NE,4.6,-,N/A,,Overcast,50,2013-10-12 00:54:00
9:54 PM,63.0,57.0,81,30.10,10.0,Calm,Calm,-,N/A,,Overcast,0,2013-10-12 01:54:00
10:54 PM,61.0,57.0,87,30.11,10.0,Calm,Calm,-,N/A,,Mostly Cloudy,0,2013-10-12 02:54:00
11:54 PM,62.1,54.0,75,30.10,10.0,ENE,4.6,-,N/A,,Overcast,60,2013-10-12 03:54:00